Starlink 31889

operational
NORAD ID: 59847 Int'l Des: 2024-097 Owner: SPXS Country: US Constellation: starlink
LEOCIRCULAR

Über Starlink 31889

Beschreibung wird geladen...

Live-Position

3D-Globus wird geladen...

Nächste Überflüge

Höhenverlauf

Altitude vs Time

uPlot chart will show altitude changes over time

Zweizeiliger Elementsatz

1 59847U 24097N 25259.18468002 .00004262 00000-0 16423-3 0 9990
2 59847 43.0027 180.2922 0000625 264.4697 95.6083 15.27593572 75229
Epoch: 16. Sept. 2025 • Age: 12 hours

Aktueller Status

Höhe 491.6 km
Geschwindigkeit 7.62 km/s
Subsatellitenpunkt -32.27°S, 112.27°W
Startdatum 23. Mai 2024
Alter 1.3 years
Typ internet

Technische Details

Klassifizierung Payload
Masse 730.00 kg
Trockenmasse 700.00 kg
Gesamtmasse 730.00 kg
Länge 0.30 m
Durchmesser 4.10 m
Spannweite 29.00 m
Form Box + pan
Hersteller SPXS
Bus-Typ Starlink V2M
Phasenstatus In Orbit
Besitzer/Staat SPXS/US

Große Konstellationen

Loading constellations...